,,,PA_Meas_PMT16A,,PR_Meas_QMR101_102,,RH_Meas_QMH101,,SR_Meas_QMS101,,TA_Meas_QMH101,,GenWind,,GenWind,
date,time,status,PA,status,PR,status,RH,status,SR,status,TA,status,DirAvg,status,SpdAvg,
2008-12-08, 00:00:04,VALID,1004.24,VALID,0,VALID,93.2097,VALID,0,VALID,24.6185,VALID,348,VALID,0.361719,
2008-12-08, 00:01:04,VALID,1004.18,VALID,0,VALID,93.2249,VALID,0,VALID,24.638,VALID,355,VALID,0.574609,
2008-12-08, 00:02:04,VALID,1004.19,VALID,0,VALID,93.1639,VALID,0,VALID,24.6574,VALID,357,VALID,0.392969,
2008-12-08, 00:03:04,VALID,1004.15,VALID,0,VALID,93.141,VALID,0,VALID,24.638,VALID,353,VALID,0.564062,
2008-12-08, 00:04:04,VALID,1004.16,VALID,0,VALID,93.1334,VALID,0,VALID,24.6574,VALID,351,VALID,0.671484,
2008-12-08, 00:05:04,VALID,1004.17,VALID,0,VALID,93.141,VALID,0,VALID,24.6574,VALID,351,VALID,0.326562,
2008-12-08, 00:06:04,VALID,1004.2,VALID,0,VALID,93.141,VALID,0,VALID,24.6769,VALID,351,VALID,0.29375,
2008-12-08, 00:07:04,VALID,1004.18,VALID,0,VALID,93.1029,VALID,0,VALID,24.6769,VALID,351,VALID,0.196094,
2008-12-08, 00:08:04,VALID,1004.24,VALID,0,VALID,93.08,VALID,0,VALID,24.6574,VALID,351,VALID,0.376172,
2008-12-08, 00:09:04,VALID,1004.24,VALID,0,VALID,93.0571,VALID,0,VALID,24.6574,VALID,351,VALID,0.282422,
2008-12-08, 00:10:04,VALID,1004.27,VALID,0,VALID,93.0266,VALID,0,VALID,24.6574,VALID,350,VALID,0.458203,
2008-12-08, 00:11:04,VALID,1004.3,VALID,0,VALID,92.9884,VALID,0,VALID,24.6574,VALID,348,VALID,0.540625,
2008-12-08, 00:12:04,VALID,1004.31,VALID,0,VALID,92.9655,VALID,0,VALID,24.6964,VALID,348,VALID,0.208984,
2008-12-08, 00:13:04,VALID,1004.31,VALID,0,VALID,92.9121,VALID,0,VALID,24.6964,VALID,348,VALID,0.272656,
2008-12-08, 00:14:04,VALID,1004.29,VALID,0,VALID,92.9198,VALID,0,VALID,24.7353,VALID,6,VALID,0.359375,
2008-12-08, 00:15:04,VALID,1004.32,VALID,0,VALID,92.8435,VALID,0,VALID,24.7743,VALID,332,VALID,0.440234,
2008-12-08, 00:16:04,VALID,1004.32,VALID,0,VALID,92.7138,VALID,0,VALID,24.854,VALID,21,VALID,0.964063,
2008-12-08, 00:17:04,VALID,1004.3,VALID,0,VALID,92.5154,VALID,0,VALID,24.93,VALID,19,VALID,0.191797,
2008-12-08, 00:18:04,VALID,1004.27,VALID,0,VALID,92.1798,VALID,0,VALID,25.0079,VALID,323,VALID,0.385938,
2008-12-08, 00:19:04,VALID,1004.24,VALID,0,VALID,91.9585,VALID,0,VALID,25.0663,VALID,322,VALID,0,
2008-12-08, 00:20:04,VALID,1004.21,VALID,0,VALID,91.6991,VALID,0,VALID,25.1053,VALID,334,VALID,0.140625,
2008-12-08, 00:21:04,VALID,1004.14,VALID,0,VALID,91.5008,VALID,0,VALID,25.1248,VALID,357,VALID,0.482031,
2008-12-08, 00:22:04,VALID,1004.15,VALID,0,VALID,91.2414,VALID,0,VALID,25.1832,VALID,347,VALID,0.214844,
2008-12-08, 00:23:04,VALID,1004.08,VALID,0,VALID,91.0202,VALID,0,VALID,25.1832,VALID,345,VALID,0.531641,
2008-12-08, 00:24:04,VALID,1004.09,VALID,0,VALID,90.921,VALID,0,VALID,25.2221,VALID,345,VALID,0.0902344,
2008-12-08, 00:25:04,VALID,1004.08,VALID,0,VALID,90.7608,VALID,0,VALID,25.2416,VALID,345,VALID,0.667969,
2008-12-08, 00:26:04,VALID,1004.09,VALID,0,VALID,90.6845,VALID,0,VALID,25.2611,VALID,341,VALID,0.607422,
2008-12-08, 00:27:04,VALID,1004.09,VALID,0,VALID,90.6692,VALID,0,VALID,25.2397,VALID,351,VALID,0.563281,
2008-12-08, 00:28:04,VALID,1004.08,VALID,0,VALID,90.6769,VALID,0,VALID,25.2611,VALID,21,VALID,0.494141,
2008-12-08, 00:29:04,VALID,1004.08,VALID,0,VALID,90.5396,VALID,0,VALID,25.3,VALID,9,VALID,0.731641,
2008-12-08, 00:30:04,VALID,1004.09,VALID,0,VALID,90.4327,VALID,0,VALID,25.339,VALID,12,VALID,0.885156,
2008-12-08, 00:31:04,VALID,1004.07,VALID,0,VALID,90.1657,VALID,0,VALID,25.3798,VALID,12,VALID,1.71992,
2008-12-08, 00:32:04,VALID,1004.05,VALID,0,VALID,89.6012,VALID,0,VALID,25.4558,VALID,358,VALID,1.41094,
2008-12-08, 00:33:04,VALID,1004.04,VALID,0,VALID,89.4563,VALID,0,VALID,25.5142,VALID,12,VALID,0.621484,
2008-12-08, 00:34:04,VALID,1004.03,VALID,0,VALID,89.2274,VALID,0,VALID,25.5532,VALID,10,VALID,1.18242,
2008-12-08, 00:35:04,VALID,1003.97,VALID,0,VALID,88.9833,VALID,0.100563,VALID,25.5921,VALID,355,VALID,0.822266,
2008-12-08, 00:36:04,VALID,1003.94,VALID,0,VALID,88.5103,VALID,0,VALID,25.6486,VALID,27,VALID,1.82813,
2008-12-08, 00:37:04,VALID,1003.94,VALID,0,VALID,88.4111,VALID,0,VALID,25.7304,VALID,31,VALID,0.621484,
2008-12-08, 00:38:04,VALID,1003.91,VALID,0,VALID,88.0602,VALID,0,VALID,25.709,VALID,20,VALID,1.86523,
2008-12-08, 00:39:04,VALID,1003.84,VALID,0,VALID,87.9305,VALID,0,VALID,25.7674,VALID,11,VALID,1.03828,
2008-12-08, 00:40:04,VALID,1003.79,VALID,0,VALID,87.6635,VALID,0,VALID,25.8083,VALID,17,VALID,1.61211,
2008-12-08, 00:41:04,VALID,1003.78,VALID,0,VALID,87.6024,VALID,0,VALID,25.7869,VALID,33,VALID,0.935547,
2008-12-08, 00:42:04,VALID,1003.77,VALID,0,VALID,87.7092,VALID,0,VALID,25.7889,VALID,357,VALID,1.23633,
2008-12-08, 00:43:04,VALID,1003.77,VALID,0,VALID,87.8847,VALID,0,VALID,25.748,VALID,9,VALID,1.18594,
2008-12-08, 00:44:04,VALID,1003.75,VALID,0,VALID,87.9457,VALID,0,VALID,25.748,VALID,12,VALID,1.20859,
2008-12-08, 00:45:04,VALID,1003.73,VALID,0,VALID,87.9991,VALID,0,VALID,25.7285,VALID,353,VALID,0.669922,
2008-12-08, 00:46:04,VALID,1003.79,VALID,0,VALID,87.961,VALID,0,VALID,25.7304,VALID,8,VALID,0.975,
2008-12-08, 00:47:04,VALID,1003.74,VALID,0,VALID,87.7092,VALID,0,VALID,25.6895,VALID,345,VALID,0.596875,
2008-12-08, 00:48:04,VALID,1003.76,VALID,0,VALID,86.6641,VALID,0,VALID,25.6895,VALID,12,VALID,1.24492,
2008-12-08, 00:49:04,VALID,1003.76,VALID,0,VALID,86.3055,VALID,0,VALID,25.709,VALID,13,VALID,1.46641,
2008-12-08, 00:50:04,VALID,1003.77,VALID,0,VALID,85.9546,VALID,0,VALID,25.7304,VALID,22,VALID,1.66406,
2008-12-08, 00:51:04,VALID,1003.79,VALID,0,VALID,86.1529,VALID,0,VALID,25.7499,VALID,357,VALID,0.635156,
2008-12-08, 00:52:04,VALID,1003.78,VALID,0,VALID,85.329,VALID,0,VALID,25.7304,VALID,29,VALID,1.62305,
2008-12-08, 00:53:04,VALID,1003.76,VALID,0,VALID,85.5426,VALID,0,VALID,25.7499,VALID,24,VALID,0.890234,
2008-12-08, 00:54:04,VALID,1003.79,VALID,0,VALID,85.3672,VALID,0,VALID,25.709,VALID,24,VALID,1.11875,
2008-12-08, 00:55:04,VALID,1003.77,VALID,0,VALID,85.4206,VALID,0,VALID,25.7109,VALID,19,VALID,1.19102,
2008-12-08, 00:56:04,VALID,1003.74,VALID,0,VALID,85.6266,VALID,0,VALID,25.6915,VALID,347,VALID,0.635156,
2008-12-08, 00:57:04,VALID,1003.73,VALID,0,VALID,85.8554,VALID,0,VALID,25.6506,VALID,327,VALID,0.851172,
2008-12-08, 00:58:04,VALID,1003.75,VALID,0,VALID,86.2674,VALID,0,VALID,25.6116,VALID,356,VALID,1.06836,
2008-12-08, 00:59:04,VALID,1003.75,VALID,0,VALID,86.6946,VALID,0,VALID,25.5727,VALID,1,VALID,0.735156,
2008-12-08, 01:00:04,VALID,1003.71,VALID,0,VALID,87.1142,VALID,0,VALID,25.5142,VALID,18,VALID,1.01289,
2008-12-08, 01:01:04,VALID,1003.71,VALID,0,VALID,87.4346,VALID,0,VALID,25.4772,VALID,37,VALID,1.25898,
2008-12-08, 01:02:04,VALID,1003.69,VALID,0,VALID,87.7779,VALID,0,VALID,25.4383,VALID,11,VALID,1.13477,
2008-12-08, 01:03:04,VALID,1003.72,VALID,0,VALID,88.0296,VALID,0,VALID,25.4383,VALID,32,VALID,2.19141,
2008-12-08, 01:04:04,VALID,1003.7,VALID,0,VALID,87.961,VALID,0,VALID,25.4383,VALID,42,VALID,1.26797,
2008-12-08, 01:05:04,VALID,1003.7,VALID,0,VALID,87.8008,VALID,0,VALID,25.4363,VALID,22,VALID,2.23789,
2008-12-08, 01:06:04,VALID,1003.7,VALID,0,VALID,87.9991,VALID,0,VALID,25.4753,VALID,22,VALID,1.79844,
2008-12-08, 01:07:04,VALID,1003.68,VALID,0,VALID,88.4416,VALID,0,VALID,25.4558,VALID,30,VALID,2.3918,
2008-12-08, 01:08:04,VALID,1003.63,VALID,0,VALID,88.6552,VALID,0,VALID,25.3974,VALID,17,VALID,1.30039,
2008-12-08, 01:09:04,VALID,1003.63,VALID,0,VALID,88.7315,VALID,0,VALID,25.3993,VALID,38,VALID,1.76523,
2008-12-08, 01:10:04,VALID,1003.64,VALID,0,VALID,88.9299,VALID,0,VALID,25.339,VALID,34,VALID,1.06523,
2008-12-08, 01:11:04,VALID,1003.64,VALID,0,VALID,88.9604,VALID,0,VALID,25.3195,VALID,49,VALID,1.78164,
2008-12-08, 01:12:04,VALID,1003.65,VALID,0,VALID,89.0824,VALID,0,VALID,25.2806,VALID,27,VALID,1.81484,
2008-12-08, 01:13:04,VALID,1003.66,VALID,0,VALID,89.1282,VALID,0,VALID,25.2825,VALID,44,VALID,1.00898,
2008-12-08, 01:14:04,VALID,1003.68,VALID,0,VALID,89.2198,VALID,0,VALID,25.2611,VALID,34,VALID,1.63086,
2008-12-08, 01:15:04,VALID,1003.67,VALID,0,VALID,89.4334,VALID,0,VALID,25.263,VALID,19,VALID,1.24414,
2008-12-08, 01:16:04,VALID,1003.63,VALID,0,VALID,89.5325,VALID,0,VALID,25.224,VALID,37,VALID,1.52422,
2008-12-08, 01:17:04,VALID,1003.62,VALID,0,VALID,89.6012,VALID,0,VALID,25.224,VALID,355,VALID,1.69258,
2008-12-08, 01:18:04,VALID,1003.62,VALID,0,VALID,89.7919,VALID,0,VALID,25.1832,VALID,24,VALID,1.31797,
2008-12-08, 01:19:04,VALID,1003.61,VALID,0,VALID,89.9445,VALID,0,VALID,25.1851,VALID,53,VALID,1.38437,
2008-12-08, 01:20:04,VALID,1003.62,VALID,0,VALID,90.1123,VALID,0,VALID,25.1656,VALID,43,VALID,1.50703,
2008-12-08, 01:21:04,VALID,1003.59,VALID,0,VALID,90.3107,VALID,0,VALID,25.1656,VALID,63,VALID,1.1168,
2008-12-08, 01:22:04,VALID,1003.57,VALID,0,VALID,90.3641,VALID,0,VALID,25.1248,VALID,29,VALID,2.39297,
2008-12-08, 01:23:04,VALID,1003.52,VALID,0,VALID,90.2954,VALID,0,VALID,25.187,VALID,59,VALID,1.59883,
2008-12-08, 01:24:04,VALID,1003.51,VALID,0,VALID,90.2573,VALID,0,VALID,25.1637,VALID,33,VALID,1.23867,
2008-12-08, 01:25:04,VALID,1003.47,VALID,0,VALID,90.2191,VALID,0,VALID,25.1851,VALID,39,VALID,1.47109,
2008-12-08, 01:26:04,VALID,1003.43,VALID,0,VALID,90.2268,VALID,0,VALID,25.2046,VALID,40,VALID,1.74492,
2008-12-08, 01:27:04,VALID,1003.43,VALID,0,VALID,90.12,VALID,0,VALID,25.2046,VALID,28,VALID,2.2207,
2008-12-08, 01:28:04,VALID,1003.37,VALID,0,VALID,90.0894,VALID,0,VALID,25.2027,VALID,26,VALID,2.17461,
2008-12-08, 01:29:04,VALID,1003.35,VALID,0,VALID,90.0132,VALID,0,VALID,25.2027,VALID,27,VALID,1.61328,
2008-12-08, 01:30:04,VALID,1003.32,VALID,0,VALID,89.8835,VALID,0,VALID,25.224,VALID,18,VALID,2.32461,
2008-12-08, 01:31:04,VALID,1003.28,VALID,0,VALID,89.853,VALID,0,VALID,25.2435,VALID,354,VALID,0.592578,
2008-12-08, 01:32:04,VALID,1003.28,VALID,0,VALID,89.9064,VALID,0,VALID,25.2416,VALID,15,VALID,1.35898,
2008-12-08, 01:33:04,VALID,1003.23,VALID,0,VALID,89.7919,VALID,0,VALID,25.2611,VALID,20,VALID,1.39219,
2008-12-08, 01:34:04,VALID,1003.24,VALID,0,VALID,89.6546,VALID,0,VALID,25.2611,VALID,31,VALID,1.74961,
2008-12-08, 01:35:04,VALID,1003.21,VALID,0,VALID,89.7233,VALID,0,VALID,25.3019,VALID,31,VALID,2.52422,
2008-12-08, 01:36:04,VALID,1003.23,VALID,0,VALID,89.7309,VALID,0,VALID,25.3,VALID,15,VALID,1.74922,
2008-12-08, 01:37:04,VALID,1003.22,VALID,0,VALID,89.6241,VALID,0,VALID,25.2806,VALID,34,VALID,2.03359,
2008-12-08, 01:38:04,VALID,1003.2,VALID,0,VALID,89.6165,VALID,0,VALID,25.2806,VALID,26,VALID,1.95039,
2008-12-08, 01:39:04,VALID,1003.18,VALID,0,VALID,89.4105,VALID,0,VALID,25.3,VALID,21,VALID,2.01758,
2008-12-08, 01:40:04,VALID,1003.2,VALID,0,VALID,89.3952,VALID,0,VALID,25.3195,VALID,31,VALID,1.72422,
2008-12-08, 01:41:04,VALID,1003.17,VALID,0,VALID,89.502,VALID,0,VALID,25.3195,VALID,24,VALID,0.758984,
2008-12-08, 01:42:04,VALID,1003.18,VALID,0,VALID,89.2121,VALID,0,VALID,25.3,VALID,24,VALID,2.39336,
2008-12-08, 01:43:04,VALID,1003.2,VALID,0,VALID,89.4181,VALID,0,VALID,25.3409,VALID,26,VALID,1.26328,
2008-12-08, 01:44:04,VALID,1003.19,VALID,0,VALID,89.2808,VALID,0,VALID,25.3195,VALID,78,VALID,2.22852,
2008-12-08, 01:45:04,VALID,1003.2,VALID,0,VALID,89.4639,VALID,0,VALID,25.3214,VALID,29,VALID,1.73945,
2008-12-08, 01:46:04,VALID,1003.24,VALID,0,VALID,89.5936,VALID,0,VALID,25.3019,VALID,26,VALID,1.36211,
2008-12-08, 01:47:04,VALID,1003.23,VALID,0,VALID,89.5402,VALID,0,VALID,25.3214,VALID,21,VALID,1.68945,
2008-12-08, 01:48:04,VALID,1003.22,VALID,0,VALID,89.647,VALID,0,VALID,25.3019,VALID,39,VALID,1.01914,
2008-12-08, 01:49:04,VALID,1003.23,VALID,0,VALID,89.8835,VALID,0,VALID,25.2611,VALID,23,VALID,1.39141,
2008-12-08, 01:50:04,VALID,1003.23,VALID,0,VALID,90.0132,VALID,0,VALID,25.2435,VALID,27,VALID,1.82695,
2008-12-08, 01:51:04,VALID,1003.25,VALID,0,VALID,90.2268,VALID,0,VALID,25.2221,VALID,11,VALID,1.05664,
2008-12-08, 01:52:04,VALID,1003.23,VALID,0,VALID,90.1734,VALID,0,VALID,25.2046,VALID,25,VALID,1.25742,
2008-12-08, 01:53:04,VALID,1003.22,VALID,0,VALID,90.3183,VALID,0,VALID,25.1461,VALID,17,VALID,1.36602,
2008-12-08, 01:54:04,VALID,1003.22,VALID,0,VALID,90.3793,VALID,0,VALID,25.1248,VALID,52,VALID,0.816016,
2008-12-08, 01:55:04,VALID,1003.21,VALID,0,VALID,90.3641,VALID,0,VALID,25.0663,VALID,34,VALID,1.99727,
2008-12-08, 01:56:04,VALID,1003.2,VALID,0,VALID,90.6006,VALID,0,VALID,25.0274,VALID,17,VALID,1.70195,
2008-12-08, 01:57:04,VALID,1003.16,VALID,0,VALID,90.7379,VALID,0,VALID,24.9709,VALID,18,VALID,2.07813,
2008-12-08, 01:58:04,VALID,1003.14,VALID,0,VALID,90.9973,VALID,0,VALID,24.8716,VALID,13,VALID,2.18008,
2008-12-08, 01:59:04,VALID,1003.13,VALID,0,VALID,91.1422,VALID,0,VALID,24.854,VALID,36,VALID,1.56133,
2008-12-08, 02:00:04,VALID,1003.1,VALID,0,VALID,91.5237,VALID,0,VALID,24.854,VALID,25,VALID,0.809766,
2008-12-08, 02:01:04,VALID,1003.11,VALID,0,VALID,91.394,VALID,0,VALID,24.8151,VALID,30,VALID,1.03359,
2008-12-08, 02:02:04,VALID,1003.1,VALID,0,VALID,91.3635,VALID,0,VALID,24.7548,VALID,27,VALID,1.13594,
2008-12-08, 02:03:04,VALID,1003.08,VALID,0,VALID,91.1728,VALID,0,VALID,24.7353,VALID,29,VALID,1.29805,
2008-12-08, 02:04:04,VALID,1003.08,VALID,0,VALID,91.1804,VALID,0,VALID,24.7159,VALID,42,VALID,1.27305,
2008-12-08, 02:05:04,VALID,1003.07,VALID,0,VALID,91.3635,VALID,0,VALID,24.7159,VALID,35,VALID,1.11641,
2008-12-08, 02:06:04,VALID,1003.07,VALID,0,VALID,91.4855,VALID,0,VALID,24.7159,VALID,25,VALID,1.50781,
2008-12-08, 02:07:04,VALID,1003.06,VALID,0,VALID,91.5923,VALID,0,VALID,24.6964,VALID,37,VALID,0.910937,
2008-12-08, 02:08:04,VALID,1003.06,VALID,0,VALID,91.6839,VALID,0,VALID,24.6964,VALID,16,VALID,1.0582,
2008-12-08, 02:09:04,VALID,1003.05,VALID,0,VALID,91.7678,VALID,0,VALID,24.6983,VALID,23,VALID,1.02539,
2008-12-08, 02:10:04,VALID,1003.04,VALID,0,VALID,91.8441,VALID,0,VALID,24.638,VALID,13,VALID,1.12227,
2008-12-08, 02:11:04,VALID,1003.02,VALID,0,VALID,91.7907,VALID,0,VALID,24.6593,VALID,28,VALID,1.79688,
2008-12-08, 02:12:04,VALID,1002.99,VALID,0,VALID,91.8212,VALID,0,VALID,24.6574,VALID,37,VALID,1.17852,
2008-12-08, 02:13:04,VALID,1002.98,VALID,0,VALID,91.6915,VALID,0,VALID,24.7177,VALID,45,VALID,1.21328,
2008-12-08, 02:14:04,VALID,1002.96,VALID,0,VALID,91.6839,VALID,0,VALID,24.7159,VALID,33,VALID,0.492188,
2008-12-08, 02:15:04,VALID,1002.95,VALID,0,VALID,91.5161,VALID,0,VALID,24.7159,VALID,28,VALID,1.29414,
2008-12-08, 02:16:04,VALID,1002.96,VALID,0,VALID,91.2185,VALID,0,VALID,24.6964,VALID,42,VALID,1.53867,
2008-12-08, 02:17:04,VALID,1002.92,VALID,0,VALID,91.0965,VALID,0,VALID,24.7353,VALID,36,VALID,0.758203,
2008-12-08, 02:18:04,VALID,1002.94,VALID,0,VALID,90.9515,VALID,0,VALID,24.7548,VALID,28,VALID,0.990625,
2008-12-08, 02:19:04,VALID,1002.92,VALID,0,VALID,91.0431,VALID,0,VALID,24.7548,VALID,29,VALID,1.00078,
2008-12-08, 02:20:04,VALID,1002.89,VALID,0,VALID,91.0507,VALID,0,VALID,24.7353,VALID,24,VALID,0.925,
2008-12-08, 02:21:04,VALID,1002.85,VALID,0,VALID,91.0659,VALID,0,VALID,24.7159,VALID,33,VALID,0.702734,
2008-12-08, 02:22:04,VALID,1002.87,VALID,0,VALID,91.0583,VALID,0,VALID,24.7353,VALID,10,VALID,0.366797,
2008-12-08, 02:23:04,VALID,1002.88,VALID,0,VALID,91.0049,VALID,0,VALID,24.7159,VALID,1,VALID,0.142969,
2008-12-08, 02:24:04,VALID,1002.86,VALID,0,VALID,91.1346,VALID,0,VALID,24.6964,VALID,1,VALID,0,
2008-12-08, 02:25:04,VALID,1002.84,VALID,0.5,VALID,91.2414,VALID,0,VALID,24.6964,VALID,1,VALID,0,
2008-12-08, 02:26:04,VALID,1002.86,VALID,0,VALID,91.3787,VALID,0,VALID,24.675,VALID,1,VALID,0,
2008-12-08, 02:27:04,VALID,1002.87,VALID,0,VALID,91.5542,VALID,0,VALID,24.6769,VALID,1,VALID,0.00195313,
2008-12-08, 02:28:04,VALID,1002.85,VALID,0,VALID,91.6076,VALID,0,VALID,24.6574,VALID,1,VALID,0.143359,
2008-12-08, 02:29:04,VALID,1002.86,VALID,0,VALID,91.6457,VALID,0,VALID,24.638,VALID,1,VALID,0,
2008-12-08, 02:30:04,VALID,1002.84,VALID,0,VALID,91.7297,VALID,0,VALID,24.638,VALID,1,VALID,0,
2008-12-08, 02:31:04,VALID,1002.84,VALID,0,VALID,91.722,VALID,0,VALID,24.599,VALID,1,VALID,0.273438,
2008-12-08, 02:32:04,VALID,1002.85,VALID,0,VALID,91.9128,VALID,0,VALID,24.6204,VALID,351,VALID,0.260156,
2008-12-08, 02:33:04,VALID,1002.83,VALID,0,VALID,92.0424,VALID,0,VALID,24.599,VALID,347,VALID,0.167969,
2008-12-08, 02:34:04,VALID,1002.81,VALID,0,VALID,91.928,VALID,0,VALID,24.599,VALID,346,VALID,0.410937,
2008-12-08, 02:35:04,VALID,1002.77,VALID,0,VALID,92.0958,VALID,0,VALID,24.599,VALID,310,VALID,0.356641,
2008-12-08, 02:36:04,VALID,1002.78,VALID,0,VALID,92.1874,VALID,0,VALID,24.6185,VALID,301,VALID,0.244531,
2008-12-08, 02:37:04,VALID,1002.76,VALID,0,VALID,92.1721,VALID,0,VALID,24.638,VALID,297,VALID,0.319531,
2008-12-08, 02:38:04,VALID,1002.77,VALID,0,VALID,92.3323,VALID,0,VALID,24.638,VALID,297,VALID,0.0796875,
2008-12-08, 02:39:04,VALID,1002.78,VALID,0,VALID,92.3629,VALID,0,VALID,24.638,VALID,297,VALID,0.357812,
2008-12-08, 02:40:04,VALID,1002.79,VALID,0,VALID,92.4163,VALID,0,VALID,24.6185,VALID,299,VALID,0.439063,
2008-12-08, 02:41:04,VALID,1002.78,VALID,0,VALID,92.5536,VALID,0,VALID,24.6185,VALID,299,VALID,0.252734,
2008-12-08, 02:42:04,VALID,1002.78,VALID,0,VALID,92.5612,VALID,0.100563,VALID,24.599,VALID,5,VALID,0.461719,
2008-12-08, 02:43:04,VALID,1002.8,VALID,0,VALID,92.462,VALID,0,VALID,24.5796,VALID,18,VALID,0.816016,
2008-12-08, 02:44:04,VALID,1002.78,VALID,0,VALID,92.3857,VALID,0,VALID,24.6204,VALID,12,VALID,0.495703,
2008-12-08, 02:45:04,VALID,1002.76,VALID,0,VALID,92.2332,VALID,0,VALID,24.5972,VALID,19,VALID,0.657031,
2008-12-08, 02:46:04,VALID,1002.77,VALID,0,VALID,91.7983,VALID,0,VALID,24.6185,VALID,30,VALID,1.1793,
2008-12-08, 02:47:04,VALID,1002.74,VALID,0,VALID,91.455,VALID,0,VALID,24.6361,VALID,24,VALID,0.673828,
2008-12-08, 02:48:04,VALID,1002.71,VALID,0,VALID,91.3787,VALID,0,VALID,24.6964,VALID,19,VALID,0.676172,
2008-12-08, 02:49:04,VALID,1002.7,VALID,0,VALID,91.3864,VALID,0,VALID,24.7159,VALID,26,VALID,0.279687,
2008-12-08, 02:50:04,VALID,1002.71,VALID,0,VALID,91.3864,VALID,0,VALID,24.7159,VALID,26,VALID,0.318359,
2008-12-08, 02:51:04,VALID,1002.68,VALID,0,VALID,91.4932,VALID,0,VALID,24.7159,VALID,26,VALID,0.264844,
2008-12-08, 02:52:04,VALID,1002.66,VALID,0,VALID,91.722,VALID,0,VALID,24.7159,VALID,14,VALID,0.2375,
2008-12-08, 02:53:04,VALID,1002.66,VALID,0,VALID,91.8441,VALID,0,VALID,24.7353,VALID,356,VALID,0.734375,
2008-12-08, 02:54:04,VALID,1002.66,VALID,0,VALID,91.8899,VALID,0,VALID,24.7761,VALID,33,VALID,0.059375,
2008-12-08, 02:55:04,VALID,1002.68,VALID,0,VALID,91.8822,VALID,0,VALID,24.7743,VALID,33,VALID,0.139062,
2008-12-08, 02:56:04,VALID,1002.71,VALID,0,VALID,91.928,VALID,0,VALID,24.7743,VALID,33,VALID,0,
2008-12-08, 02:57:04,VALID,1002.75,VALID,0,VALID,91.9204,VALID,0,VALID,24.7353,VALID,33,VALID,0.124219,
2008-12-08, 02:58:04,VALID,1002.75,VALID,0,VALID,91.8288,VALID,0,VALID,24.6964,VALID,36,VALID,0.661328,
2008-12-08, 02:59:04,VALID,1002.75,VALID,0,VALID,91.8517,VALID,0,VALID,24.6964,VALID,34,VALID,0.449609,
2008-12-08, 03:00:04,VALID,1002.75,VALID,0,VALID,91.928,VALID,0,VALID,24.6788,VALID,34,VALID,0.253906,
2008-12-08, 03:01:04,VALID,1002.72,VALID,0,VALID,92.134,VALID,0,VALID,24.6574,VALID,34,VALID,0.345703,
2008-12-08, 03:02:04,VALID,1002.71,VALID,0,VALID,92.3018,VALID,0,VALID,24.6574,VALID,311,VALID,0.180078,
2008-12-08, 03:03:04,VALID,1002.72,VALID,0,VALID,92.4391,VALID,0,VALID,24.6769,VALID,339,VALID,0.608203,
2008-12-08, 03:04:04,VALID,1002.7,VALID,0,VALID,92.6299,VALID,0,VALID,24.6769,VALID,349,VALID,0.480859,
2008-12-08, 03:05:04,VALID,1002.69,VALID,0,VALID,92.7519,VALID,0,VALID,24.6769,VALID,352,VALID,0.448438,
2008-12-08, 03:06:04,VALID,1002.69,VALID,0,VALID,92.7824,VALID,0,VALID,24.6964,VALID,352,VALID,0.354688,
2008-12-08, 03:07:04,VALID,1002.68,VALID,0,VALID,92.7748,VALID,0,VALID,24.6769,VALID,352,VALID,0.102344,
2008-12-08, 03:08:04,VALID,1002.68,VALID,0,VALID,92.7748,VALID,0,VALID,24.6788,VALID,353,VALID,0.421094,
2008-12-08, 03:09:04,VALID,1002.69,VALID,0,VALID,92.7824,VALID,0,VALID,24.6185,VALID,342,VALID,0.447656,
2008-12-08, 03:10:04,VALID,1002.71,VALID,0,VALID,92.8511,VALID,0,VALID,24.599,VALID,352,VALID,0.456641,
2008-12-08, 03:11:04,VALID,1002.7,VALID,0,VALID,92.8969,VALID,0,VALID,24.5601,VALID,352,VALID,0.459766,
2008-12-08, 03:12:04,VALID,1002.75,VALID,0,VALID,92.9503,VALID,0,VALID,24.5425,VALID,352,VALID,0.296484,
2008-12-08, 03:13:04,VALID,1002.74,VALID,0,VALID,93.0418,VALID,0,VALID,24.4822,VALID,352,VALID,0.227734,
2008-12-08, 03:14:04,VALID,1002.71,VALID,0,VALID,93.1639,VALID,0,VALID,24.4841,VALID,352,VALID,0.269531,
2008-12-08, 03:15:04,VALID,1002.69,VALID,0,VALID,93.202,VALID,0,VALID,24.4433,VALID,351,VALID,0.303906,
2008-12-08, 03:16:04,VALID,1002.71,VALID,0,VALID,93.3165,VALID,0,VALID,24.4238,VALID,351,VALID,0.146875,
2008-12-08, 03:17:04,VALID,1002.68,VALID,0,VALID,93.4156,VALID,0,VALID,24.383,VALID,350,VALID,0.238281,
2008-12-08, 03:18:04,VALID,1002.66,VALID,0,VALID,93.5148,VALID,0,VALID,24.4043,VALID,352,VALID,0.993359,
2008-12-08, 03:19:04,VALID,1002.66,VALID,0,VALID,93.5224,VALID,0,VALID,24.4433,VALID,346,VALID,0.319141,
2008-12-08, 03:20:04,VALID,1002.65,VALID,0,VALID,93.4767,VALID,0,VALID,24.4628,VALID,346,VALID,0.24375,
2008-12-08, 03:21:04,VALID,1002.64,VALID,0,VALID,93.4156,VALID,0,VALID,24.4628,VALID,346,VALID,0.196875,
2008-12-08, 03:22:04,VALID,1002.64,VALID,0,VALID,93.4385,VALID,0.100563,VALID,24.4628,VALID,346,VALID,0.387109,
2008-12-08, 03:23:04,VALID,1002.66,VALID,0,VALID,93.4233,VALID,0,VALID,24.4628,VALID,346,VALID,0.250781,
2008-12-08, 03:24:04,VALID,1002.68,VALID,0,VALID,93.408,VALID,0,VALID,24.4433,VALID,346,VALID,0.00117188,
2008-12-08, 03:25:04,VALID,1002.66,VALID,0,VALID,93.4309,VALID,0,VALID,24.4025,VALID,346,VALID,0.287891,
2008-12-08, 03:26:04,VALID,1002.67,VALID,0,VALID,93.4462,VALID,0,VALID,24.4025,VALID,346,VALID,0,
2008-12-08, 03:27:04,VALID,1002.66,VALID,0,VALID,93.4614,VALID,0,VALID,24.4257,VALID,346,VALID,0,
2008-12-08, 03:28:04,VALID,1002.68,VALID,0,VALID,93.5072,VALID,0,VALID,24.3849,VALID,346,VALID,0,
2008-12-08, 03:29:04,VALID,1002.68,VALID,0,VALID,93.5224,VALID,0,VALID,24.3849,VALID,346,VALID,0,
2008-12-08, 03:30:04,VALID,1002.65,VALID,0,VALID,93.6064,VALID,0,VALID,24.3849,VALID,346,VALID,0.0714844,
2008-12-08, 03:31:04,VALID,1002.63,VALID,0,VALID,93.6216,VALID,0,VALID,24.3636,VALID,346,VALID,0.123438,
2008-12-08, 03:32:04,VALID,1002.63,VALID,0,VALID,93.675,VALID,0,VALID,24.3654,VALID,346,VALID,0.000390625,
2008-12-08, 03:33:04,VALID,1002.62,VALID,0,VALID,93.675,VALID,0,VALID,24.3459,VALID,346,VALID,0.365234,
2008-12-08, 03:34:04,VALID,1002.59,VALID,0,VALID,93.6674,VALID,0,VALID,24.3265,VALID,346,VALID,0.365625,
2008-12-08, 03:35:04,VALID,1002.59,VALID,0,VALID,93.6979,VALID,0,VALID,24.307,VALID,346,VALID,0.286719,
2008-12-08, 03:36:04,VALID,1002.6,VALID,0,VALID,93.6826,VALID,0,VALID,24.2875,VALID,346,VALID,0.396094,
2008-12-08, 03:37:04,VALID,1002.64,VALID,0,VALID,93.7666,VALID,0,VALID,24.2486,VALID,346,VALID,0.4125,
2008-12-08, 03:38:04,VALID,1002.63,VALID,0,VALID,93.8352,VALID,0,VALID,24.2486,VALID,346,VALID,0.316406,
2008-12-08, 03:39:04,VALID,1002.62,VALID,0,VALID,93.9115,VALID,0,VALID,24.2291,VALID,346,VALID,0.235938,
2008-12-08, 03:40:04,VALID,1002.62,VALID,0,VALID,93.9649,VALID,0,VALID,24.2291,VALID,346,VALID,0.13125,
2008-12-08, 03:41:04,VALID,1002.65,VALID,0,VALID,94.0336,VALID,0,VALID,24.231,VALID,346,VALID,0.237109,
2008-12-08, 03:42:04,VALID,1002.64,VALID,0,VALID,93.9878,VALID,0,VALID,24.2097,VALID,346,VALID,0,
2008-12-08, 03:43:04,VALID,1002.68,VALID,0,VALID,93.9649,VALID,0,VALID,24.1707,VALID,346,VALID,0,
2008-12-08, 03:44:04,VALID,1002.69,VALID,0,VALID,93.9725,VALID,0,VALID,24.1513,VALID,346,VALID,0,
2008-12-08, 03:45:04,VALID,1002.71,VALID,0,VALID,93.9725,VALID,0,VALID,24.1318,VALID,346,VALID,0,
2008-12-08, 03:46:04,VALID,1002.7,VALID,0,VALID,94.0565,VALID,0,VALID,24.1123,VALID,346,VALID,0,
2008-12-08, 03:47:04,VALID,1002.72,VALID,0,VALID,94.0794,VALID,0,VALID,24.1123,VALID,346,VALID,0,